Flag for U.S.A. Weather past 2 weeks in Chicago, Illinois, U.S.A.

Now
37 °F

Mostly cloudy.


Feels Like: 27 °F
Forecast: 32 / 45 °F
Wind: 20 mph from Southwest

Location: Chicago Midway Airport

Current Time: Mar 29, 2015 at 3:17:31 PM

Latest Report: Mar 29, 2015 at 1:53 PM


Visibility: 10 mi

Pressure: 29.92 "Hg

Humidity: 73%

Dew point: 29 °F

Location of ChicagoLocation

Historic Weather in Chicago — Graph

°F

Chicago temperature yesterday

Maximum temperature yesterday: 36 °F (at 4:53 PM)
Minimum temperature yesterday: 22 °F (at 4:53 AM)
Average temperature yesterday: 30 °F

Past Weeks' High & Low Weather Summary

 TemperatureHumidityPressure
High74 °F (Mar 16, 4:53 PM)93% (Mar 21, 4:53 AM)30.39 "Hg (Mar 21, 4:53 AM)
Low22 °F (Mar 28, 4:53 AM)19% (Mar 18, 1:53 PM)29.72 "Hg (Mar 16, 5:53 PM)
Average40 °F58%30.17 "Hg
* Reported Mar 14 1:53 PM — Mar 29 1:53 PM, Chicago, Weather by CustomWeather, © 2015

Note: Actual official high and low records may vary slightly from our data, if they occured in-between our weather recording intervals... More about our weather records

Advertising

Chicago weather history for previous 24 hours

 ConditionsComfort  
Time TempWeatherWind HumidityBarometerVisibility
1:53 PM
Sun, Mar 29
37 °FMostly cloudy.20 mph73%29.92 "Hg10 mi
12:53 PM37 °FMostly cloudy.15 mph70%29.99 "Hg10 mi
11:53 AM37 °FLight rain. Mostly cloudy.22 mph62%29.98 "Hg10 mi
10:53 AM40 °FMostly cloudy.22 mph40%30.03 "Hg10 mi
9:53 AM38 °FPartly sunny.18 mph45%30.11 "Hg10 mi
8:53 AM36 °FPartly sunny.18 mph46%30.13 "Hg10 mi
7:53 AM32 °FBroken clouds.15 mph54%30.18 "Hg10 mi
6:53 AM32 °FPassing clouds.12 mph52%30.17 "Hg10 mi
5:53 AM31 °FPassing clouds.10 mph52%30.20 "Hg10 mi
4:53 AM31 °FPassing clouds.13 mph49%30.20 "Hg10 mi
3:53 AM30 °FPassing clouds.9 mph51%30.23 "Hg10 mi
2:53 AM28 °FPassing clouds.8 mph56%30.26 "Hg10 mi
1:53 AM28 °FPassing clouds.8 mph53%30.29 "Hg10 mi
12:53 AM28 °FClear.8 mph51%30.31 "Hg10 mi
11:53 PM
Sat, Mar 28
29 °FClear.8 mph49%30.32 "Hg10 mi
10:53 PM29 °FClear.6 mph56%30.33 "Hg10 mi
9:53 PM30 °FClear.7 mph51%30.35 "Hg10 mi
8:53 PM30 °FClear.8 mph45%30.34 "Hg10 mi
7:53 PM31 °FSunny.10 mph41%30.34 "Hg10 mi
6:53 PM33 °FSunny.8 mph35%30.34 "Hg10 mi
5:53 PM35 °FSunny.7 mph31%30.34 "Hg10 mi
4:53 PM36 °FSunny.6 mph26%30.35 "Hg10 mi
3:53 PM35 °FSunny.No wind27%30.36 "Hg10 mi
Weather by CustomWeather, © 2015

See weather overviewHow to use our weather pages